Regional Weather Roundup
Issued by NWS

Home | Current Version | Previous Version | Graphics & Text | Print | Product List | Glossary On
Versions: 1 2 3 4 5 6 7 8 9 10 11 12 13 14 15 16 17 18 19 20 21 22 23 24 25 26 27 28
000
ASUS45 KTFX 281010
RWRMT
MONTANA REGIONAL WEATHER ROUNDUP
NATIONAL WEATHER SERVICE GREAT FALLS MT
400 AM MDT TUE MAR 28 2017

NOTE: "FAIR" INDICATES FEW OR NO CLOUDS BELOW 12000 FEET WITH NO
SIGNIFICANT WEATHER AND/OR OBSTRUCTIONS TO VISIBILITY.

MTZ001>007-043-281100-
WEST OF THE DIVIDE

CITY           SKY/WX    TMP DP  RH WIND       PRES   REMARKS
KALISPELL      CLOUDY    36  32  85 S3        30.14S
MISSOULA       CLOUDY    34  32  92 CALM      30.21R
BUTTE          MOCLDY    30  24  78 N3        30.14R
MULLAN PASS    CLOUDY    27  26  96 W6        30.12S WCI  20
ANACONDA         N/A     36  21  55 W7        30.15R WCI  30
DEER LODGE       N/A     32  28  86 CALM      30.18S
EUREKA           N/A     39  30  70 SE7       30.12S
HAMILTON         N/A     36  27  69 CALM      30.20R
PLAINS           N/A     34  28  79 CALM      30.19R
RONAN            N/A     38  33  82 E2        30.19S
$$

MTZ008-052>055-281100-
SOUTHWEST MONTANA

CITY           SKY/WX    TMP DP  RH WIND       PRES   REMARKS
BOZEMAN        CLOUDY    36  27  69 NW6       30.12R WCI  31
DILLON         MOCLDY    32  25  75 S3        30.12R
W YELLOWSTONE  CLOUDY    27  27 100 CALM      30.07R
ENNIS          CLOUDY    28  25  86 NE6       30.16R WCI  22
THREE FORKS      N/A     33 -38   4 CALM      30.11R
TWIN BRIDGES     N/A     31  20  63 NW7       30.10R WCI  24
$$

MTZ009-010-012-014-046-048-049-054-281100-
EAST SLOPES AND CENTRAL MONTANA

CITY           SKY/WX    TMP DP  RH WIND       PRES   REMARKS
CUT BANK       CLEAR     33  24  69 W13       30.02R WCI  24
GREAT FALLS    CLOUDY    33  25  72 SW13      30.06R WCI  24
MALMSTROM AFB  CLOUDY    31  27  83 SW9       30.08R WCI  23
HELENA         CLEAR     38  26  62 SW5       30.13R
AUGUSTA          N/A     33  22  66 SW9       30.05R WCI  25
BOWMANS CRNR     N/A     29  23  80 S8        30.06R WCI  21
CHOTEAU          N/A     37  19  48 CALM      30.07R
CONRAD           N/A     33  26  76 S3        30.05R
FAIRFIELD        N/A     30  19  64 CALM      30.05R
POWER            N/A     27  20  76 W5        30.05R
RAYNESFORD     MOCLDY    38  28  66 SW9       30.08R WCI  32
$$

MTZ011-013-016-021-045-047-050-051-281100-
NORTH CENTRAL MONTANA

CITY           SKY/WX    TMP DP  RH WIND       PRES   REMARKS
HAVRE          CLOUDY    42  30  62 SW15      30.03R
LEWISTOWN      LGT RAIN  39  36  89 SW6       30.06R
N BAR RANCH    CLOUDY    39  32  75 NW12      30.06R WCI  32
CHINOOK          N/A     34  34 100 CALM      30.02R
DENTON         MOCLDY    40  33  74 W8        30.02R
GEYSER         MOCLDY    38  29  70 W16       30.05R WCI  28
GRASS RANGE    LGT RAIN  39  36  88 W15       30.02R WCI  31
JUDITH GAP     MOCLDY    35  34  94 N9        30.04S WCI  28
STANFORD       MOCLDY    35  33  90 W7        30.05R WCI  30
WINIFRED       MOCLDY    41  33  71 W9        30.04R
$$

MTZ017>020-022>027-061-062-281100-
NORTHEAST MONTANA

CITY           SKY/WX    TMP DP  RH WIND       PRES   REMARKS
GLASGOW        CLOUDY    34  31  88 E9        29.99R WCI  27
JORDAN           N/A     35  32  88 W8        29.97R WCI  29
SIDNEY         CLOUDY    38  36  92 N8        30.00R
WOLF POINT     CLOUDY    36  33  89 NE8       30.01R WCI  30
MALTA          CLEAR     34  32  93 S3        30.01R
PLENTYWOOD       N/A     36  36 100 NE7       30.03R WCI  30
POPLAR           N/A     34  34 100 NE10      30.01S VSB 1/2 WCI  26
$$

MTZ028>42-056>058-281100-
SOUTHCENTRAL AND SOUTHEAST MONTANA

CITY           SKY/WX    TMP DP  RH WIND       PRES   REMARKS
BAKER          MOCLDY    42  33  70 SE12      29.97R
BILLINGS       RAIN      41  38  89 NW12      30.03R
LIVINGSTON     PTCLDY    38  28  67 W13       30.07S WCI  30
MILES CITY     CLOUDY    42  34  73 NE5       29.95S
BIG TIMBER     CLOUDY    39  30  70 W17G26    30.08R WCI  30
FORSYTH          N/A     43  37  81 W5        29.96R
HARLOWTON      MOCLDY    38  31  76 W16       30.05R WCI  29
LAUREL           N/A     39  25  58 W8        30.03F
$$

REGIONAL REPORTS...DAKOTAS

CITY           SKY/WX    TMP DP  RH WIND       PRES   REMARKS
WILLISTON      CLOUDY    37  35  92 E8        30.03R WCI  31
MINOT          CLOUDY    34  33  96 NE8       30.08R WCI  27
DICKINSON      PTCLDY    31  27  85 E9        29.98S WCI  23
BEACH            N/A    N/A N/A N/A MISG        N/A
TIOGA          CLOUDY    34  34 100 E13       30.04R FOG     WCI  25
WATFORD CITY   CLOUDY    36  36 100 E14       30.00R WCI  27
BISMARCK       CLEAR     30  27  88 E3        30.05R
GRAND FORKS    CLOUDY    34  33  96 N7        30.11R WCI  28
FARGO          FOG       33  33 100 N5        30.08F VSB 1/4
BUFFALO SD       N/A     40  33  76 SE5       29.90F
RAPID CITY     CLOUDY    40  33  76 N9        29.93F
$$

REGIONAL REPORTS...WYOMING/IDAHO/WASHINGTON

CITY           SKY/WX    TMP DP  RH WIND       PRES   REMARKS
GILLETTE       CLOUDY    39  36  89 CALM      29.93S
SHERIDAN       CLOUDY    43  37  79 NW17      29.97R
BUFFALO WY     CLOUDY    42  36  79 NW14G25   29.97R
CODY           LGT RAIN  36  33  89 NW6       30.03R WCI  31
YELLOWSTONE LA   N/A     26  25  96 CALM      30.06R
IDAHO FALLS    MOCLDY    34  34 100 VRB5      30.09S
SALMON         CLOUDY    34  25  69 CALM      30.18S
BOISE          PTCLDY    37  31  78 W6        30.22R
SPOKANE        PTCLDY    36  33  89 S10       30.18R WCI  28
$$

REGIONAL REPORTS...ALBERTA

CITY           SKY/WX    TMP DP  RH WIND       PRES   REMARKS
EDMONTON       PTCLDY    28  27  93 NE3       29.91S
CALGARY        PTCLDY    34  23  64 SE5       29.92S
LETHBRIDGE     MOCLDY    36  25  64 SW15      29.98R WCI  26
MEDICINE HAT   CLEAR     36  28  75 S14       29.94R WCI  27
WATERTON GATE    N/A     37  23  56 SW17G30     N/A  WCI  28
CARDSTON         N/A     37  23  56 W9          N/A  WCI  31
MILK RIVER       N/A     34  25  69 SW8         N/A  WCI  27
$$

REGIONAL REPORTS...SASKATCHEWAN

CITY           SKY/WX    TMP DP  RH WIND       PRES   REMARKS
SWIFT CURRENT  CLOUDY    34  30  86 SE7       29.98S WCI  28
REGINA         PTCLDY    32  30  93 E10       30.07S WCI  24
SASKATOON      CLOUDY    34  32  93 E9        30.07S WCI  26
CYPRESS HILLS    N/A     34  32  93 S6          N/A  WCI  29
VAL MARIE        N/A     32  30  93 E7          N/A  WCI  26
ROCKGLEN         N/A     36  32  87 E9          N/A  WCI  29
$$




USA.gov is the U.S. government's official web portal to all federal, state and local government web resources and services.